Location: Ch?enovice
(49.7164°N, 15.2160°E)
Time: 21:40:15
(UTC+00:00)

Cosmos 2237 - Pass Details

Date: 23 May 2024
Orbit: 844 x 857 km, 70.8° (Epoch: 20 June)

Event Time Altitude Azimuth Distance (km) Brightness Sun altitude
Rises 00:11:10 0° 331° (NNW) 3,441 8.0 -17.7°
Reaches altitude 10° 00:13:39 10° 333° (NNW) 2,501 7.3 -17.6°
Maximum altitude 00:19:24 74° 59° (ENE) 896 4.4 -17.2°
Drops below altitude 10° 00:25:08 10° 145° (SE) 2,485 6.3 -16.9°
Enters shadow 00:25:54 - 145° (SE) 2,775 6.6 -16.9°
